,,,PA_Meas_PMT16A,,PR_Meas_QMR101_102,,RH_Meas_QMH101,,SR_Meas_QMS101,,TA_Meas_QMH101,,GenWind,,GenWind,
date,time,status,PA,status,PR,status,RH,status,SR,status,TA,status,DirAvg,status,SpdAvg,
2012-01-10, 00:00:05,VALID,1000.48,VALID,0,VALID,94.531,VALID,0,VALID,23.6817,VALID,178,VALID,0.969141,
2012-01-10, 00:01:05,VALID,1000.49,VALID,0,VALID,94.5157,VALID,0,VALID,23.7012,VALID,178,VALID,0.557422,
2012-01-10, 00:02:05,VALID,1000.47,VALID,0,VALID,94.5081,VALID,0,VALID,23.7012,VALID,178,VALID,0.552734,
2012-01-10, 00:03:05,VALID,1000.47,VALID,0,VALID,94.4928,VALID,0,VALID,23.6799,VALID,178,VALID,0.124609,
2012-01-10, 00:04:05,VALID,1000.49,VALID,0,VALID,94.4928,VALID,0,VALID,23.7207,VALID,178,VALID,0.151172,
2012-01-10, 00:05:05,VALID,1000.47,VALID,0,VALID,94.47,VALID,0,VALID,23.6799,VALID,236,VALID,0.532812,
2012-01-10, 00:06:05,VALID,1000.43,VALID,0,VALID,94.4394,VALID,0,VALID,23.6604,VALID,236,VALID,0.359375,
2012-01-10, 00:07:05,VALID,1000.4,VALID,0,VALID,94.4318,VALID,0,VALID,23.6427,VALID,236,VALID,0,
2012-01-10, 00:08:05,VALID,1000.39,VALID,0,VALID,94.3937,VALID,0,VALID,23.6232,VALID,236,VALID,0,
2012-01-10, 00:09:05,VALID,1000.33,VALID,0,VALID,94.386,VALID,0,VALID,23.5628,VALID,236,VALID,0,
2012-01-10, 00:10:05,VALID,1000.29,VALID,0,VALID,94.386,VALID,0,VALID,23.5628,VALID,236,VALID,0,
2012-01-10, 00:11:05,VALID,1000.23,VALID,0,VALID,94.3937,VALID,0,VALID,23.5841,VALID,236,VALID,0,
2012-01-10, 00:12:05,VALID,1000.21,VALID,0,VALID,94.3708,VALID,0,VALID,23.5628,VALID,236,VALID,0,
2012-01-10, 00:13:05,VALID,1000.15,VALID,0,VALID,94.3631,VALID,0,VALID,23.5646,VALID,236,VALID,0,
2012-01-10, 00:14:05,VALID,1000.18,VALID,0,VALID,94.3784,VALID,0,VALID,23.5646,VALID,236,VALID,0,
2012-01-10, 00:15:05,VALID,1000.16,VALID,0,VALID,94.3784,VALID,0,VALID,23.5433,VALID,236,VALID,0,
2012-01-10, 00:16:05,VALID,1000.15,VALID,0,VALID,94.3631,VALID,0,VALID,23.5043,VALID,236,VALID,0,
2012-01-10, 00:17:05,VALID,1000.14,VALID,0,VALID,94.325,VALID,0,VALID,23.4653,VALID,236,VALID,0,
2012-01-10, 00:18:05,VALID,1000.12,VALID,0,VALID,94.3174,VALID,0,VALID,23.4475,VALID,345,VALID,0.458594,
2012-01-10, 00:19:05,VALID,1000.14,VALID,0,VALID,94.3097,VALID,0,VALID,23.389,VALID,16,VALID,0.961719,
2012-01-10, 00:20:05,VALID,1000.07,VALID,0,VALID,94.3403,VALID,0,VALID,23.3482,VALID,16,VALID,0.942969,
2012-01-10, 00:21:05,VALID,1000.05,VALID,0,VALID,94.3631,VALID,0,VALID,23.3695,VALID,16,VALID,0.987109,
2012-01-10, 00:22:05,VALID,1000.03,VALID,0,VALID,94.3784,VALID,0,VALID,23.3695,VALID,16,VALID,0.864453,
2012-01-10, 00:23:05,VALID,1000.01,VALID,0,VALID,94.4165,VALID,0,VALID,23.3482,VALID,16,VALID,0.648828,
2012-01-10, 00:24:05,VALID,999.97,VALID,0,VALID,94.4318,VALID,0,VALID,23.3092,VALID,16,VALID,0.526563,
2012-01-10, 00:25:05,VALID,999.978,VALID,0,VALID,94.4242,VALID,0,VALID,23.3092,VALID,16,VALID,0.357031,
2012-01-10, 00:26:05,VALID,999.911,VALID,0,VALID,94.4623,VALID,0,VALID,23.2897,VALID,16,VALID,0.235938,
2012-01-10, 00:27:05,VALID,999.894,VALID,0,VALID,94.4623,VALID,0,VALID,23.2915,VALID,16,VALID,0,
2012-01-10, 00:28:05,VALID,999.881,VALID,0,VALID,94.4547,VALID,0,VALID,23.2507,VALID,16,VALID,0,
2012-01-10, 00:29:05,VALID,999.855,VALID,0,VALID,94.4547,VALID,0,VALID,23.2312,VALID,16,VALID,0,
2012-01-10, 00:30:05,VALID,999.876,VALID,0,VALID,94.47,VALID,0,VALID,23.2117,VALID,16,VALID,0,
2012-01-10, 00:31:05,VALID,999.842,VALID,0,VALID,94.4776,VALID,0,VALID,23.1921,VALID,16,VALID,0,
2012-01-10, 00:32:05,VALID,999.829,VALID,0,VALID,94.4852,VALID,0,VALID,23.1726,VALID,35,VALID,0,
2012-01-10, 00:33:05,VALID,999.839,VALID,0,VALID,94.5005,VALID,0,VALID,23.1939,VALID,40,VALID,0.699609,
2012-01-10, 00:34:05,VALID,999.842,VALID,0,VALID,94.5157,VALID,0,VALID,23.1939,VALID,40,VALID,0.549219,
2012-01-10, 00:35:05,VALID,999.832,VALID,0,VALID,94.531,VALID,0,VALID,23.1939,VALID,40,VALID,0.366797,
2012-01-10, 00:36:05,VALID,999.823,VALID,0,VALID,94.531,VALID,0,VALID,23.1531,VALID,40,VALID,0.0535156,
2012-01-10, 00:37:05,VALID,999.816,VALID,0,VALID,94.5386,VALID,0,VALID,23.1531,VALID,40,VALID,0,
2012-01-10, 00:38:05,VALID,999.811,VALID,0,VALID,94.5462,VALID,0,VALID,23.1531,VALID,40,VALID,0,
2012-01-10, 00:39:05,VALID,999.81,VALID,0,VALID,94.5615,VALID,0,VALID,23.1531,VALID,40,VALID,0,
2012-01-10, 00:40:05,VALID,999.782,VALID,0,VALID,94.5691,VALID,0,VALID,23.1531,VALID,40,VALID,0,
2012-01-10, 00:41:05,VALID,999.777,VALID,0,VALID,94.5691,VALID,0,VALID,23.1549,VALID,40,VALID,0,
2012-01-10, 00:42:05,VALID,999.765,VALID,0,VALID,94.6149,VALID,0,VALID,23.1336,VALID,40,VALID,0,
2012-01-10, 00:43:05,VALID,999.761,VALID,0,VALID,94.5768,VALID,0,VALID,23.1354,VALID,40,VALID,0,
2012-01-10, 00:44:05,VALID,999.717,VALID,0,VALID,94.5768,VALID,0,VALID,23.0964,VALID,40,VALID,0,
2012-01-10, 00:45:05,VALID,999.743,VALID,0,VALID,94.5768,VALID,0,VALID,23.0769,VALID,40,VALID,0,
2012-01-10, 00:46:05,VALID,999.747,VALID,0,VALID,94.5844,VALID,0,VALID,23.0573,VALID,40,VALID,0,
2012-01-10, 00:47:05,VALID,999.723,VALID,0,VALID,94.5844,VALID,0,VALID,22.9971,VALID,40,VALID,0,
2012-01-10, 00:48:05,VALID,999.726,VALID,0,VALID,94.592,VALID,0,VALID,22.9988,VALID,40,VALID,0,
2012-01-10, 00:49:05,VALID,999.762,VALID,0,VALID,94.592,VALID,0,VALID,22.9776,VALID,40,VALID,0,
2012-01-10, 00:50:05,VALID,999.779,VALID,0,VALID,94.6149,VALID,0,VALID,22.9581,VALID,40,VALID,0,
2012-01-10, 00:51:05,VALID,999.768,VALID,0,VALID,94.6073,VALID,0,VALID,22.9793,VALID,40,VALID,0.0308594,
2012-01-10, 00:52:05,VALID,999.757,VALID,0,VALID,94.6073,VALID,0,VALID,22.9581,VALID,40,VALID,1.13711,
2012-01-10, 00:53:05,VALID,999.749,VALID,0,VALID,94.6302,VALID,0,VALID,22.9793,VALID,40,VALID,1.16289,
2012-01-10, 00:54:05,VALID,999.769,VALID,0,VALID,94.6226,VALID,0,VALID,22.9598,VALID,40,VALID,1.17461,
2012-01-10, 00:55:05,VALID,999.734,VALID,0,VALID,94.6378,VALID,0,VALID,22.9581,VALID,46,VALID,1.16875,
2012-01-10, 00:56:05,VALID,999.735,VALID,0,VALID,94.6454,VALID,0,VALID,22.9581,VALID,46,VALID,1.02734,
2012-01-10, 00:57:05,VALID,999.692,VALID,0,VALID,94.676,VALID,0,VALID,22.9581,VALID,46,VALID,0.733594,
2012-01-10, 00:58:05,VALID,999.724,VALID,0,VALID,94.676,VALID,0,VALID,22.9776,VALID,46,VALID,0.582031,
2012-01-10, 00:59:04,VALID,999.717,VALID,0,VALID,94.6988,VALID,0,VALID,22.9581,VALID,46,VALID,0.433203,
2012-01-10, 01:00:04,VALID,999.734,VALID,0,VALID,94.6988,VALID,0,VALID,22.9793,VALID,46,VALID,0.413672,
2012-01-10, 01:01:04,VALID,999.712,VALID,0,VALID,94.6912,VALID,0,VALID,22.9581,VALID,46,VALID,0.324219,
2012-01-10, 01:02:04,VALID,999.701,VALID,0,VALID,94.7065,VALID,0,VALID,22.9793,VALID,46,VALID,0,
2012-01-10, 01:03:04,VALID,999.719,VALID,0,VALID,94.7065,VALID,0,VALID,22.9988,VALID,46,VALID,0,
2012-01-10, 01:04:04,VALID,999.705,VALID,0,VALID,94.6988,VALID,0,VALID,22.9988,VALID,46,VALID,0,
2012-01-10, 01:05:04,VALID,999.716,VALID,0,VALID,94.7141,VALID,0,VALID,22.9988,VALID,46,VALID,0,
2012-01-10, 01:06:04,VALID,999.734,VALID,0,VALID,94.7065,VALID,0,VALID,23.0378,VALID,46,VALID,0,
2012-01-10, 01:07:04,VALID,999.698,VALID,0,VALID,94.7141,VALID,0,VALID,23.0166,VALID,15,VALID,0,
2012-01-10, 01:08:04,VALID,999.693,VALID,0,VALID,94.7141,VALID,0,VALID,23.0378,VALID,15,VALID,0,
2012-01-10, 01:09:04,VALID,999.69,VALID,0,VALID,94.6988,VALID,0,VALID,23.0166,VALID,15,VALID,0,
2012-01-10, 01:10:04,VALID,999.683,VALID,0,VALID,94.7141,VALID,0,VALID,23.0183,VALID,15,VALID,0,
2012-01-10, 01:11:04,VALID,999.714,VALID,0,VALID,94.7294,VALID,0,VALID,23.0183,VALID,15,VALID,0,
2012-01-10, 01:12:04,VALID,999.686,VALID,0,VALID,94.7141,VALID,0,VALID,23.0166,VALID,15,VALID,0,
2012-01-10, 01:13:04,VALID,999.702,VALID,0,VALID,94.7065,VALID,0,VALID,23.0361,VALID,15,VALID,0,
2012-01-10, 01:14:04,VALID,999.718,VALID,0,VALID,94.7141,VALID,0,VALID,23.0166,VALID,15,VALID,0,
2012-01-10, 01:15:04,VALID,999.716,VALID,0,VALID,94.7217,VALID,0,VALID,23.0573,VALID,15,VALID,0,
2012-01-10, 01:16:04,VALID,999.725,VALID,0,VALID,94.6988,VALID,0,VALID,23.0573,VALID,15,VALID,0,
2012-01-10, 01:17:04,VALID,999.731,VALID,0,VALID,94.7217,VALID,0,VALID,23.0361,VALID,15,VALID,0,
2012-01-10, 01:18:04,VALID,999.694,VALID,0,VALID,94.7294,VALID,0,VALID,23.0361,VALID,15,VALID,0,
2012-01-10, 01:19:04,VALID,999.674,VALID,0,VALID,94.7217,VALID,0,VALID,23.0573,VALID,15,VALID,0,
2012-01-10, 01:20:04,VALID,999.683,VALID,0,VALID,94.7294,VALID,0,VALID,23.0556,VALID,15,VALID,0,
2012-01-10, 01:21:04,VALID,999.648,VALID,0,VALID,94.7141,VALID,0,VALID,23.0556,VALID,15,VALID,0.155859,
2012-01-10, 01:22:04,VALID,999.648,VALID,0,VALID,94.7141,VALID,0,VALID,23.0769,VALID,15,VALID,0,
2012-01-10, 01:23:04,VALID,999.649,VALID,0,VALID,94.7217,VALID,0,VALID,23.0769,VALID,15,VALID,0,
2012-01-10, 01:24:04,VALID,999.702,VALID,0,VALID,94.7065,VALID,0,VALID,23.0769,VALID,15,VALID,0,
2012-01-10, 01:25:04,VALID,999.639,VALID,0,VALID,94.7294,VALID,0,VALID,23.0361,VALID,15,VALID,0,
2012-01-10, 01:26:04,VALID,999.644,VALID,0,VALID,94.7217,VALID,0,VALID,23.0378,VALID,15,VALID,0,
2012-01-10, 01:27:04,VALID,999.613,VALID,0,VALID,94.7065,VALID,0,VALID,23.0183,VALID,15,VALID,0,
2012-01-10, 01:28:04,VALID,999.596,VALID,0,VALID,94.7446,VALID,0,VALID,22.9793,VALID,15,VALID,0,
2012-01-10, 01:29:04,VALID,999.576,VALID,0,VALID,94.7217,VALID,0,VALID,22.9793,VALID,15,VALID,0,
2012-01-10, 01:30:04,VALID,999.532,VALID,0,VALID,94.7141,VALID,0,VALID,22.9793,VALID,15,VALID,0,
2012-01-10, 01:31:04,VALID,999.556,VALID,0,VALID,94.7065,VALID,0,VALID,22.9581,VALID,15,VALID,0,
2012-01-10, 01:32:04,VALID,999.519,VALID,0,VALID,94.7446,VALID,0,VALID,22.9793,VALID,15,VALID,0,
2012-01-10, 01:33:04,VALID,999.503,VALID,0,VALID,94.7217,VALID,0,VALID,22.9581,VALID,15,VALID,0,
2012-01-10, 01:34:04,VALID,999.473,VALID,0,VALID,94.7217,VALID,0,VALID,22.9793,VALID,15,VALID,0,
2012-01-10, 01:35:04,VALID,999.458,VALID,0,VALID,94.737,VALID,0,VALID,22.9793,VALID,15,VALID,0,
2012-01-10, 01:36:04,VALID,999.428,VALID,0,VALID,94.7446,VALID,0,VALID,22.9598,VALID,15,VALID,0,
2012-01-10, 01:37:04,VALID,999.417,VALID,0,VALID,94.7446,VALID,0,VALID,22.9403,VALID,15,VALID,0,
2012-01-10, 01:38:04,VALID,999.395,VALID,0,VALID,94.7294,VALID,0,VALID,22.9598,VALID,15,VALID,0,
2012-01-10, 01:39:04,VALID,999.383,VALID,0,VALID,94.7446,VALID,0,VALID,22.9598,VALID,15,VALID,0,
2012-01-10, 01:40:04,VALID,999.353,VALID,0,VALID,94.7294,VALID,0,VALID,22.9403,VALID,15,VALID,0,
2012-01-10, 01:41:04,VALID,999.35,VALID,0,VALID,94.737,VALID,0,VALID,22.9403,VALID,15,VALID,0,
2012-01-10, 01:42:04,VALID,999.316,VALID,0,VALID,94.7599,VALID,0,VALID,22.9208,VALID,15,VALID,0,
2012-01-10, 01:43:04,VALID,999.316,VALID,0,VALID,94.7217,VALID,0,VALID,22.9208,VALID,15,VALID,0,
2012-01-10, 01:44:04,VALID,999.316,VALID,0,VALID,94.7446,VALID,0,VALID,22.9013,VALID,15,VALID,0,
2012-01-10, 01:45:04,VALID,999.294,VALID,0,VALID,94.737,VALID,0,VALID,22.9013,VALID,15,VALID,0,
2012-01-10, 01:46:04,VALID,999.269,VALID,0,VALID,94.7217,VALID,0,VALID,22.8818,VALID,15,VALID,0,
2012-01-10, 01:47:04,VALID,999.277,VALID,0,VALID,94.737,VALID,0.104696,VALID,22.8818,VALID,15,VALID,0,
2012-01-10, 01:48:04,VALID,999.258,VALID,0,VALID,94.7446,VALID,0,VALID,22.864,VALID,15,VALID,0,
2012-01-10, 01:49:04,VALID,999.249,VALID,0,VALID,94.7446,VALID,0,VALID,22.8835,VALID,15,VALID,0,
2012-01-10, 01:50:04,VALID,999.278,VALID,0,VALID,94.7446,VALID,0,VALID,22.9225,VALID,15,VALID,0,
2012-01-10, 01:51:04,VALID,999.259,VALID,0,VALID,94.7446,VALID,0,VALID,22.9225,VALID,15,VALID,0,
2012-01-10, 01:52:04,VALID,999.271,VALID,0,VALID,94.737,VALID,0,VALID,22.9615,VALID,15,VALID,0,
2012-01-10, 01:53:04,VALID,999.259,VALID,0,VALID,94.7523,VALID,0,VALID,22.9208,VALID,15,VALID,0,
2012-01-10, 01:54:04,VALID,999.273,VALID,0,VALID,94.7523,VALID,0,VALID,22.8835,VALID,15,VALID,0,
2012-01-10, 01:55:04,VALID,999.281,VALID,0,VALID,94.7523,VALID,0,VALID,22.8462,VALID,15,VALID,0,
2012-01-10, 01:56:04,VALID,999.265,VALID,0,VALID,94.7599,VALID,0,VALID,22.786,VALID,15,VALID,0,
2012-01-10, 01:57:04,VALID,999.267,VALID,0,VALID,94.7599,VALID,0,VALID,22.786,VALID,15,VALID,0,
2012-01-10, 01:58:04,VALID,999.271,VALID,0,VALID,94.7675,VALID,0,VALID,22.786,VALID,15,VALID,0,
2012-01-10, 01:59:04,VALID,999.241,VALID,0,VALID,94.7751,VALID,0,VALID,22.786,VALID,15,VALID,0,
2012-01-10, 02:00:04,VALID,999.248,VALID,0,VALID,94.7599,VALID,0,VALID,22.786,VALID,15,VALID,0,
2012-01-10, 02:01:04,VALID,999.213,VALID,0,VALID,94.7828,VALID,0,VALID,22.8055,VALID,15,VALID,0,
2012-01-10, 02:02:04,VALID,999.184,VALID,0,VALID,94.7751,VALID,0,VALID,22.8445,VALID,15,VALID,0,
2012-01-10, 02:03:04,VALID,999.174,VALID,0,VALID,94.7904,VALID,0,VALID,22.8818,VALID,15,VALID,0,
2012-01-10, 02:04:04,VALID,999.152,VALID,0,VALID,94.7828,VALID,0,VALID,22.9013,VALID,15,VALID,0,
2012-01-10, 02:05:04,VALID,999.144,VALID,0,VALID,94.7751,VALID,0,VALID,22.9208,VALID,15,VALID,0,
2012-01-10, 02:06:04,VALID,999.127,VALID,0,VALID,94.7828,VALID,0,VALID,22.9403,VALID,15,VALID,0,
2012-01-10, 02:07:04,VALID,999.077,VALID,0,VALID,94.7751,VALID,0,VALID,22.9598,VALID,15,VALID,0,
2012-01-10, 02:08:04,VALID,999.067,VALID,0,VALID,94.7828,VALID,0,VALID,22.9598,VALID,15,VALID,0,
2012-01-10, 02:09:04,VALID,999.069,VALID,0,VALID,94.7751,VALID,0,VALID,22.9598,VALID,15,VALID,0,
2012-01-10, 02:10:04,VALID,999.061,VALID,0,VALID,94.798,VALID,0,VALID,22.9598,VALID,15,VALID,0,
2012-01-10, 02:11:04,VALID,999.058,VALID,0,VALID,94.798,VALID,0,VALID,22.9793,VALID,15,VALID,0,
2012-01-10, 02:12:04,VALID,999.077,VALID,0,VALID,94.8057,VALID,0,VALID,22.9988,VALID,15,VALID,0,
2012-01-10, 02:13:04,VALID,999.078,VALID,0,VALID,94.8057,VALID,0,VALID,23.0183,VALID,15,VALID,0,
2012-01-10, 02:14:04,VALID,999.071,VALID,0,VALID,94.798,VALID,0,VALID,23.0183,VALID,15,VALID,0,
2012-01-10, 02:15:04,VALID,999.072,VALID,0,VALID,94.8057,VALID,0,VALID,23.0573,VALID,15,VALID,0,
2012-01-10, 02:16:04,VALID,999.055,VALID,0,VALID,94.798,VALID,0,VALID,23.0556,VALID,15,VALID,0,
2012-01-10, 02:17:04,VALID,999.061,VALID,0,VALID,94.8209,VALID,0,VALID,23.0769,VALID,15,VALID,0,
2012-01-10, 02:18:04,VALID,999.032,VALID,0,VALID,94.8057,VALID,0,VALID,23.0751,VALID,15,VALID,0,
2012-01-10, 02:19:04,VALID,999.028,VALID,0,VALID,94.8209,VALID,0,VALID,23.1159,VALID,15,VALID,0,
2012-01-10, 02:20:04,VALID,999.053,VALID,0,VALID,94.8057,VALID,0,VALID,23.1159,VALID,15,VALID,0.334375,
2012-01-10, 02:21:04,VALID,999.015,VALID,0,VALID,94.8133,VALID,0,VALID,23.1354,VALID,15,VALID,0.324219,
2012-01-10, 02:22:04,VALID,999.026,VALID,0,VALID,94.8362,VALID,0,VALID,23.1549,VALID,15,VALID,0.347266,
2012-01-10, 02:23:04,VALID,998.984,VALID,0,VALID,94.8285,VALID,0,VALID,23.1549,VALID,15,VALID,0.316016,
2012-01-10, 02:24:04,VALID,999.007,VALID,0,VALID,94.8057,VALID,0,VALID,23.1549,VALID,15,VALID,0.381641,
2012-01-10, 02:25:04,VALID,998.987,VALID,0,VALID,94.798,VALID,0,VALID,23.1549,VALID,15,VALID,0.229687,
2012-01-10, 02:26:04,VALID,998.988,VALID,0,VALID,94.8285,VALID,0,VALID,23.1549,VALID,15,VALID,0.355078,
2012-01-10, 02:27:04,VALID,999.01,VALID,0,VALID,94.8362,VALID,0,VALID,23.1549,VALID,15,VALID,0.371094,
2012-01-10, 02:28:04,VALID,998.989,VALID,0,VALID,94.8285,VALID,0.104696,VALID,23.1531,VALID,15,VALID,0.442187,
2012-01-10, 02:29:04,VALID,999.029,VALID,0,VALID,94.8285,VALID,0,VALID,23.1549,VALID,15,VALID,0.354297,
2012-01-10, 02:30:04,VALID,999.026,VALID,0,VALID,94.8133,VALID,0,VALID,23.1336,VALID,15,VALID,0.49375,
2012-01-10, 02:31:04,VALID,999.015,VALID,0,VALID,94.798,VALID,0,VALID,23.1549,VALID,15,VALID,0.579687,
2012-01-10, 02:32:04,VALID,999.01,VALID,0,VALID,94.8133,VALID,0.104696,VALID,23.1744,VALID,15,VALID,0.587891,
2012-01-10, 02:33:04,VALID,998.984,VALID,0,VALID,94.8057,VALID,0,VALID,23.1726,VALID,15,VALID,0.560547,
2012-01-10, 02:34:04,VALID,998.973,VALID,0,VALID,94.8285,VALID,0,VALID,23.1744,VALID,15,VALID,0.485547,
2012-01-10, 02:35:04,VALID,998.933,VALID,0,VALID,94.8438,VALID,0,VALID,23.1531,VALID,46,VALID,0.636328,
2012-01-10, 02:36:04,VALID,998.923,VALID,0,VALID,94.8133,VALID,0,VALID,23.1744,VALID,46,VALID,0.735156,
2012-01-10, 02:37:04,VALID,998.907,VALID,0,VALID,94.8362,VALID,0,VALID,23.1939,VALID,46,VALID,0.714063,
2012-01-10, 02:38:04,VALID,998.912,VALID,0,VALID,94.8209,VALID,0,VALID,23.1939,VALID,46,VALID,0.8,
2012-01-10, 02:39:04,VALID,998.905,VALID,0,VALID,94.8133,VALID,0,VALID,23.1744,VALID,63,VALID,1.02656,
2012-01-10, 02:40:04,VALID,998.875,VALID,0,VALID,94.8209,VALID,0,VALID,23.1939,VALID,59,VALID,0.908594,
2012-01-10, 02:41:04,VALID,998.855,VALID,0,VALID,94.8209,VALID,0,VALID,23.1531,VALID,57,VALID,0.859375,
2012-01-10, 02:42:04,VALID,998.828,VALID,0,VALID,94.8362,VALID,0,VALID,23.1744,VALID,52,VALID,0.824609,
2012-01-10, 02:43:04,VALID,998.818,VALID,0,VALID,94.8362,VALID,0,VALID,23.1354,VALID,52,VALID,0.4375,
2012-01-10, 02:44:04,VALID,998.779,VALID,0,VALID,94.8133,VALID,0,VALID,23.0769,VALID,52,VALID,0.25625,
2012-01-10, 02:45:04,VALID,998.742,VALID,0,VALID,94.798,VALID,0,VALID,23.0573,VALID,52,VALID,0.338281,
2012-01-10, 02:46:04,VALID,998.757,VALID,0,VALID,94.8285,VALID,0,VALID,22.9971,VALID,52,VALID,0.423438,
2012-01-10, 02:47:04,VALID,998.71,VALID,0,VALID,94.8057,VALID,0,VALID,22.9988,VALID,52,VALID,0.510547,
2012-01-10, 02:48:04,VALID,998.707,VALID,0,VALID,94.8057,VALID,0,VALID,22.9385,VALID,52,VALID,0.548047,
2012-01-10, 02:49:04,VALID,998.695,VALID,0,VALID,94.7828,VALID,0,VALID,22.9403,VALID,52,VALID,0.645703,
2012-01-10, 02:50:04,VALID,998.725,VALID,0,VALID,94.798,VALID,0,VALID,22.9208,VALID,52,VALID,0.635938,
2012-01-10, 02:51:04,VALID,998.747,VALID,0,VALID,94.7904,VALID,0,VALID,22.9208,VALID,52,VALID,0.539063,
2012-01-10, 02:52:04,VALID,998.755,VALID,0,VALID,94.7904,VALID,0,VALID,22.9208,VALID,61,VALID,0.71875,
2012-01-10, 02:53:04,VALID,998.754,VALID,0,VALID,94.7751,VALID,0,VALID,22.9208,VALID,62,VALID,0.417578,
2012-01-10, 02:54:04,VALID,998.742,VALID,0,VALID,94.798,VALID,0,VALID,22.9208,VALID,62,VALID,0.451953,
2012-01-10, 02:55:04,VALID,998.748,VALID,0,VALID,94.798,VALID,0,VALID,22.9208,VALID,62,VALID,0.491016,
2012-01-10, 02:56:04,VALID,998.758,VALID,0,VALID,94.8057,VALID,0,VALID,22.8995,VALID,62,VALID,0.392188,
2012-01-10, 02:57:04,VALID,998.754,VALID,0,VALID,94.7828,VALID,0,VALID,22.88,VALID,62,VALID,0,
2012-01-10, 02:58:04,VALID,998.717,VALID,0,VALID,94.798,VALID,0,VALID,22.8818,VALID,62,VALID,0,
2012-01-10, 02:59:04,VALID,998.745,VALID,0,VALID,94.7828,VALID,0,VALID,22.841,VALID,62,VALID,0,
2012-01-10, 03:00:04,VALID,998.739,VALID,0,VALID,94.8133,VALID,0,VALID,22.8623,VALID,62,VALID,0,
2012-01-10, 03:01:04,VALID,998.754,VALID,0,VALID,94.7828,VALID,0,VALID,22.8215,VALID,62,VALID,0,
2012-01-10, 03:02:04,VALID,998.782,VALID,0,VALID,94.798,VALID,0,VALID,22.8427,VALID,62,VALID,0,
2012-01-10, 03:03:04,VALID,998.791,VALID,0,VALID,94.798,VALID,0,VALID,22.841,VALID,62,VALID,0,
2012-01-10, 03:04:04,VALID,998.794,VALID,0,VALID,94.798,VALID,0.104696,VALID,22.8605,VALID,62,VALID,0,
2012-01-10, 03:05:04,VALID,998.788,VALID,0,VALID,94.7904,VALID,0,VALID,22.8995,VALID,344,VALID,0,
2012-01-10, 03:06:04,VALID,998.809,VALID,0,VALID,94.7904,VALID,0,VALID,22.919,VALID,344,VALID,0,
2012-01-10, 03:07:04,VALID,998.805,VALID,0,VALID,94.7904,VALID,0,VALID,22.9403,VALID,344,VALID,0,
2012-01-10, 03:08:04,VALID,998.785,VALID,0,VALID,94.8057,VALID,0,VALID,22.9403,VALID,344,VALID,0,
2012-01-10, 03:09:04,VALID,998.797,VALID,0,VALID,94.7904,VALID,0,VALID,22.9598,VALID,344,VALID,0,
2012-01-10, 03:10:04,VALID,998.749,VALID,0,VALID,94.8057,VALID,0,VALID,22.9598,VALID,344,VALID,0,
2012-01-10, 03:11:04,VALID,998.812,VALID,0,VALID,94.798,VALID,0,VALID,22.9598,VALID,344,VALID,0,
2012-01-10, 03:12:04,VALID,998.788,VALID,0,VALID,94.8057,VALID,0,VALID,22.9793,VALID,344,VALID,0,
2012-01-10, 03:13:04,VALID,998.81,VALID,0,VALID,94.798,VALID,0,VALID,22.9598,VALID,344,VALID,0,
2012-01-10, 03:14:04,VALID,998.874,VALID,0,VALID,94.798,VALID,0,VALID,22.9403,VALID,344,VALID,0,
2012-01-10, 03:15:04,VALID,998.897,VALID,0,VALID,94.8285,VALID,0,VALID,22.919,VALID,344,VALID,0,
2012-01-10, 03:16:04,VALID,998.901,VALID,0,VALID,94.8133,VALID,0,VALID,22.9208,VALID,344,VALID,0,
2012-01-10, 03:17:04,VALID,998.901,VALID,0,VALID,94.8057,VALID,0,VALID,22.9013,VALID,344,VALID,0,
2012-01-10, 03:18:04,VALID,998.93,VALID,0,VALID,94.798,VALID,0,VALID,22.9208,VALID,344,VALID,0,
2012-01-10, 03:19:04,VALID,998.942,VALID,0,VALID,94.8057,VALID,0,VALID,22.9208,VALID,344,VALID,0,
2012-01-10, 03:20:04,VALID,998.934,VALID,0,VALID,94.8438,VALID,0,VALID,22.9598,VALID,344,VALID,0,
2012-01-10, 03:21:04,VALID,998.941,VALID,0,VALID,94.8209,VALID,0,VALID,22.9988,VALID,344,VALID,0,
2012-01-10, 03:22:04,VALID,998.937,VALID,0,VALID,94.8133,VALID,0,VALID,23.0378,VALID,344,VALID,0,
2012-01-10, 03:23:04,VALID,998.956,VALID,0,VALID,94.8133,VALID,0,VALID,23.0591,VALID,344,VALID,0,
2012-01-10, 03:24:04,VALID,998.951,VALID,0,VALID,94.8133,VALID,0,VALID,23.0591,VALID,344,VALID,0,
2012-01-10, 03:25:04,VALID,998.989,VALID,0,VALID,94.8438,VALID,0,VALID,23.0378,VALID,344,VALID,0,
2012-01-10, 03:26:04,VALID,998.978,VALID,0,VALID,94.8133,VALID,0,VALID,23.0573,VALID,344,VALID,0,
2012-01-10, 03:27:04,VALID,999.009,VALID,0,VALID,94.8209,VALID,0,VALID,23.0786,VALID,344,VALID,0,
2012-01-10, 03:28:04,VALID,998.98,VALID,0,VALID,94.8133,VALID,0,VALID,23.0786,VALID,344,VALID,0,
2012-01-10, 03:29:04,VALID,998.963,VALID,0,VALID,94.8209,VALID,0,VALID,23.0591,VALID,344,VALID,0,
2012-01-10, 03:30:04,VALID,998.958,VALID,0,VALID,94.8209,VALID,0,VALID,23.0786,VALID,344,VALID,0,
2012-01-10, 03:31:04,VALID,998.918,VALID,0,VALID,94.8362,VALID,0,VALID,23.0573,VALID,344,VALID,0,
2012-01-10, 03:32:04,VALID,998.915,VALID,0,VALID,94.8285,VALID,0,VALID,23.0573,VALID,344,VALID,0,
2012-01-10, 03:33:04,VALID,998.867,VALID,0,VALID,94.8285,VALID,0,VALID,23.0556,VALID,344,VALID,0,
2012-01-10, 03:34:04,VALID,998.86,VALID,0,VALID,94.8285,VALID,0,VALID,23.0556,VALID,344,VALID,0,
2012-01-10, 03:35:04,VALID,998.856,VALID,0,VALID,94.8285,VALID,0,VALID,23.0556,VALID,344,VALID,0,
2012-01-10, 03:36:04,VALID,998.817,VALID,0,VALID,94.8285,VALID,0,VALID,23.0769,VALID,344,VALID,0,
2012-01-10, 03:37:04,VALID,998.76,VALID,0,VALID,94.8285,VALID,0,VALID,23.0751,VALID,344,VALID,0,
2012-01-10, 03:38:04,VALID,998.793,VALID,0,VALID,94.8285,VALID,0,VALID,23.0964,VALID,344,VALID,0,
2012-01-10, 03:39:04,VALID,998.768,VALID,0,VALID,94.8057,VALID,0,VALID,23.0946,VALID,344,VALID,0,
2012-01-10, 03:40:04,VALID,998.754,VALID,0,VALID,94.8285,VALID,0,VALID,23.0946,VALID,344,VALID,0,
2012-01-10, 03:41:04,VALID,998.715,VALID,0,VALID,94.8285,VALID,0,VALID,23.0946,VALID,344,VALID,0,
2012-01-10, 03:42:04,VALID,998.729,VALID,0,VALID,94.8285,VALID,0,VALID,23.1354,VALID,344,VALID,0,
2012-01-10, 03:43:04,VALID,998.701,VALID,0,VALID,94.8209,VALID,0,VALID,23.1141,VALID,344,VALID,0,
2012-01-10, 03:44:04,VALID,998.717,VALID,0,VALID,94.8133,VALID,0,VALID,23.1531,VALID,12,VALID,0.0964844,
2012-01-10, 03:45:04,VALID,998.734,VALID,0,VALID,94.8285,VALID,0,VALID,23.1921,VALID,60,VALID,0.935547,
2012-01-10, 03:46:04,VALID,998.707,VALID,0,VALID,94.8133,VALID,0.104696,VALID,23.2117,VALID,60,VALID,0.920313,
2012-01-10, 03:47:04,VALID,998.71,VALID,0,VALID,94.8285,VALID,0,VALID,23.2524,VALID,60,VALID,0.796875,
2012-01-10, 03:48:04,VALID,998.703,VALID,0,VALID,94.8209,VALID,0,VALID,23.2312,VALID,60,VALID,0.741797,
2012-01-10, 03:49:04,VALID,998.703,VALID,0,VALID,94.8285,VALID,0,VALID,23.2524,VALID,60,VALID,0.377734,
2012-01-10, 03:50:04,VALID,998.731,VALID,0,VALID,94.8209,VALID,0,VALID,23.2524,VALID,60,VALID,0.0214844,
2012-01-10, 03:51:04,VALID,998.704,VALID,0,VALID,94.8438,VALID,0.104696,VALID,23.2329,VALID,60,VALID,0,
2012-01-10, 03:52:04,VALID,998.677,VALID,0,VALID,94.8362,VALID,0,VALID,23.2329,VALID,60,VALID,0,
2012-01-10, 03:53:04,VALID,998.679,VALID,0,VALID,94.8285,VALID,0,VALID,23.2312,VALID,60,VALID,0.391797,
2012-01-10, 03:54:04,VALID,998.663,VALID,0,VALID,94.8209,VALID,0.104696,VALID,23.2507,VALID,60,VALID,0.363672,
2012-01-10, 03:55:04,VALID,998.703,VALID,0,VALID,94.8209,VALID,0,VALID,23.2524,VALID,60,VALID,0.273828,